Location: *
(35.2348°S, 91.3916°E)
Time: 12:21:59
(UTC+00:00)

USA 229 - Pass Details

Date: 23 October 2019
Orbit: 996 x 1216 km, 63.4° (Epoch: 11 November)

Event Time Altitude Azimuth Distance (km) Brightness Sun altitude
Rises 12:50:03 0° 206° (SSW) 3,914 7.4 -7.5°
Reaches altitude 10° 12:52:59 10° 198° (SSW) 2,919 6.6 -8.1°
Maximum altitude 12:59:23 40° 129° (SE) 1,485 4.3 -9.3°
Enters shadow 13:04:54 13° 63° (ENE) 2,595 5.1 -10.3°
